Hourly Data Report for June 06, 2018

TORONTO CITY
ONTARIO
Current Station Operator: ECCC - MSC

43°40'00.000" N
79°24'00.000" W
112.50 m
6158355
71508
XTO

Download Data

Hourly Data (June 2018)
Hourly Data Report for June 6, 2018
TIME
LST
Temp Definition
°C
Dew Point Definition
°C
Rel Hum Definition
%
Precip. Amount Definition
mm

Wind Dir Definition
10's deg

Wind Spd Definition
km/h
Visibility Definition
km
Stn Press Definition
kPa
Hmdx Definition


Wind Chill Definition


Weather Definition


00:00 11.5 6.6 72 0.0 LegendMM LegendMM   99.67     LegendNANA
01:00 11.6 6.5 71 0.0 LegendMM LegendMM   99.68     LegendNANA
02:00 11.3 6.3 71 0.0 LegendMM LegendMM   99.67     LegendNANA
03:00 11.0 6.1 72 0.0 LegendMM LegendMM   99.70     LegendNANA
04:00 11.3 5.9 69 0.0 LegendMM LegendMM   99.77     LegendNANA
05:00 11.2 6.0 71 0.0 LegendMM LegendMM   99.86     LegendNANA
06:00 11.1 6.2 72 0.0 LegendMM LegendMM   99.89     LegendNANA
07:00 11.5 6.1 69 0.0 LegendMM LegendMM   99.90     LegendNANA
08:00 11.9 6.4 69 0.0 LegendMM LegendMM   100.00     LegendNANA
09:00 12.3 6.5 68 0.0 LegendMM LegendMM   100.01     LegendNANA
10:00 13.0 7.0 67 0.0 LegendMM LegendMM   100.10     LegendNANA
11:00 13.6 6.6 62 0.0 LegendMM LegendMM   100.09     LegendNANA
12:00 13.8 6.1 60 0.0 LegendMM LegendMM   100.19     LegendNANA
13:00 15.3 7.5 60 0.0 LegendMM LegendMM   100.13     LegendNANA
14:00 16.1 8.0 58 0.0 LegendMM LegendMM   100.10     LegendNANA
15:00 16.3 7.5 56 0.0 LegendMM LegendMM   100.10     LegendNANA
16:00 15.5 7.5 59 0.0 LegendMM LegendMM   100.13     LegendNANA
17:00 15.2 6.9 57 0.0 LegendMM LegendMM   100.11     LegendNANA
18:00 15.1 7.3 60 0.0 LegendMM LegendMM   100.10     LegendNANA
19:00 14.0 7.7 66 0.0 LegendMM LegendMM   100.13     LegendNANA
20:00 14.0 7.8 66 0.0 LegendMM LegendMM   100.09     LegendNANA
21:00 13.7 8.6 71 0.0 LegendMM LegendMM   100.17     LegendNANA
22:00 12.9 8.9 77 0.0 LegendMM LegendMM   100.19     LegendNANA
23:00 12.9 8.8 76 0.0 LegendMM LegendMM   100.19     LegendNANA

Notes on Data Quality.

Legend

  • E = Estimated
  • M = Missing
  • NA = Not Available*
  • [empty] = Indicates an unobserved value
Date modified: